| time (UTC) | temp F | wind direction | speed knots | gust knots | rain 1hr in | rain 24hr in | rain mn in | humidity % | barometer mb |
| 20260504150524 | 39 | 192 | 0.9 | 1.7 | 0.14 | 0.31 | 0.21 | 85 | 1003.0 |
| 20260504140516 | 40 | 261 | 0.9 | 1.7 | 0.07 | 0.17 | 0.07 | 80 | 1003.8 |
| 20260504130532 | 43 | 203 | 0.0 | 1.7 | 0.00 | 0.10 | 0.00 | 72 | 1003.7 |
| 20260504110521 | 37 | 0.0 | 0.0 | 0.00 | 0.10 | 0.00 | 79 | 1003.6 | |
| 20260504100519 | 30 | 0.0 | 0.0 | 0.00 | 0.10 | 0.00 | 86 | 1003.9 | |
| 20260504081529 | 27 | 0.0 | 0.0 | 0.00 | 0.10 | 0.00 | 85 | 1004.3 | |
| 20260504080515 | 27 | 0.0 | 0.0 | 0.00 | 0.10 | 0.00 | 85 | 1004.4 | |
| 20260504050526 | 30 | 0.0 | 0.0 | 0.00 | 0.10 | 0.00 | 78 | 1004.9 | |
| 20260504045530 | 30 | 0.0 | 0.9 | 0.00 | 0.10 | 0.00 | 76 | 1004.8 | |
| 20260504044515 | 30 | 0.0 | 0.0 | 0.00 | 0.10 | 0.00 | 76 | 1005.1 | |
| 20260504043519 | 30 | 0.0 | 0.0 | 0.00 | 0.10 | 0.00 | 75 | 1005.1 | |
| 20260504042543 | 31 | 203 | 0.0 | 0.9 | 0.00 | 0.10 | 0.00 | 75 | 1005.1 |
| 20260504041527 | 31 | 0.0 | 0.0 | 0.00 | 0.10 | 0.00 | 74 | 1005.1 | |
| 20260504040530 | 31 | 0.0 | 0.0 | 0.00 | 0.10 | 0.00 | 73 | 1004.9 | |
| 20260504035516 | 32 | 0.0 | 0.0 | 0.00 | 0.10 | 0.00 | 72 | 1004.9 | |
| 20260504034519 | 32 | 0.0 | 0.0 | 0.00 | 0.10 | 0.00 | 71 | 1005.0 | |
| 20260504033523 | 33 | 0.0 | 0.0 | 0.00 | 0.10 | 0.00 | 70 | 1005.1 | |
| 20260504032527 | 33 | 0.0 | 0.0 | 0.00 | 0.10 | 0.00 | 69 | 1005.1 | |
| 20260504031531 | 34 | 0.0 | 0.0 | 0.00 | 0.10 | 0.00 | 68 | 1005.4 | |
| 20260504030516 | 34 | 0.0 | 0.0 | 0.00 | 0.10 | 0.00 | 67 | 1005.1 | |
| 20260504025520 | 34 | 0.0 | 0.0 | 0.00 | 0.10 | 0.00 | 66 | 1005.1 | |
| 20260504024523 | 35 | 203 | 0.9 | 1.7 | 0.00 | 0.10 | 0.00 | 66 | 1005.1 |
| 20260504023607 | 35 | 0.0 | 0.0 | 0.00 | 0.10 | 0.00 | 64 | 1004.9 | |
| 20260504022531 | 36 | 215 | 0.9 | 1.7 | 0.00 | 0.10 | 0.00 | 64 | 1004.8 |
| 20260504021537 | 36 | 0.0 | 0.0 | 0.00 | 0.10 | 0.00 | 64 | 1004.9 | |
| 20260504020520 | 36 | 180 | 0.0 | 0.9 | 0.00 | 0.10 | 0.00 | 63 | 1005.2 |
| 20260504015524 | 36 | 0.0 | 0.0 | 0.00 | 0.10 | 0.00 | 61 | 1005.1 | |
| 20260504014521 | 37 | 0.0 | 0.0 | 0.00 | 0.10 | 0.00 | 59 | 1004.6 | |
| 20260504013519 | 38 | 0.0 | 0.0 | 0.00 | 0.10 | 0.00 | 57 | 1004.9 | |
| 20260504012517 | 40 | 0.0 | 0.0 | 0.00 | 0.10 | 0.00 | 56 | 1005.0 | |
| 20260504011540 | 41 | 0.0 | 0.0 | 0.00 | 0.10 | 0.00 | 55 | 1004.5 | |
| 20260504010604 | 42 | 0.0 | 0.0 | 0.00 | 0.10 | 0.00 | 52 | 1004.5 | |
| 20260504005527 | 43 | 270 | 0.0 | 0.9 | 0.00 | 0.10 | 0.00 | 50 | 1005.0 |
| 20260504004531 | 44 | 346 | 1.7 | 2.6 | 0.00 | 0.10 | 0.00 | 49 | 1004.9 |
| 20260504003556 | 45 | 23 | 0.0 | 2.6 | 0.00 | 0.10 | 0.00 | 49 | 1004.9 |
| 20260504002521 | 45 | 4 | 2.6 | 5.2 | 0.00 | 0.10 | 0.00 | 48 | 1004.8 |
| 20260504001524 | 46 | 297 | 1.7 | 3.5 | 0.00 | 0.10 | 0.00 | 47 | 1004.3 |
| 20260504000528 | 46 | 338 | 3.5 | 7.0 | 0.00 | 0.10 | 0.00 | 47 | 1004.4 |
| 20260503235531 | 47 | 327 | 3.5 | 6.1 | 0.00 | 0.10 | 0.00 | 47 | 1004.4 |
| 20260503234517 | 48 | 341 | 2.6 | 4.3 | 0.00 | 0.10 | 0.00 | 46 | 1004.4 |
| 20260503233541 | 49 | 323 | 3.5 | 5.2 | 0.00 | 0.10 | 0.00 | 45 | 1004.4 |
| 20260503232524 | 50 | 330 | 5.2 | 7.8 | 0.00 | 0.10 | 0.00 | 45 | 1004.3 |
| 20260503231528 | 50 | 328 | 5.2 | 7.8 | 0.00 | 0.10 | 0.00 | 44 | 1004.3 |
| 20260503230532 | 51 | 316 | 6.1 | 9.6 | 0.00 | 0.10 | 0.00 | 44 | 1003.9 |
| 20260503225517 | 51 | 269 | 5.2 | 7.8 | 0.00 | 0.10 | 0.10 | 44 | 1004.2 |
| 20260503224521 | 52 | 281 | 5.2 | 9.6 | 0.00 | 0.10 | 0.10 | 44 | 1003.9 |
| 20260503223524 | 52 | 265 | 4.3 | 8.7 | 0.00 | 0.10 | 0.10 | 44 | 1004.1 |
| 20260503222528 | 53 | 299 | 7.0 | 9.6 | 0.00 | 0.10 | 0.10 | 44 | 1004.1 |
| 20260503221532 | 53 | 271 | 7.0 | 12.2 | 0.00 | 0.10 | 0.10 | 44 | 1003.7 |
| 20260503220517 | 53 | 263 | 6.1 | 8.7 | 0.00 | 0.10 | 0.10 | 44 | 1003.8 |
| 20260503215521 | 53 | 297 | 7.0 | 11.3 | 0.00 | 0.10 | 0.10 | 44 | 1004.4 |
| 20260503214524 | 52 | 298 | 6.1 | 10.4 | 0.00 | 0.11 | 0.10 | 45 | 1004.8 |
| 20260503213522 | 54 | 293 | 7.0 | 10.4 | 0.00 | 0.12 | 0.10 | 45 | 1004.4 |
| 20260503212520 | 53 | 312 | 4.3 | 6.1 | 0.00 | 0.12 | 0.10 | 46 | 1004.1 |
| 20260503211517 | 51 | 263 | 3.5 | 7.8 | 0.00 | 0.12 | 0.10 | 46 | 1004.0 |
| 20260503210515 | 52 | 293 | 5.2 | 7.8 | 0.00 | 0.12 | 0.10 | 46 | 1003.9 |
| 20260503205525 | 51 | 293 | 4.3 | 7.0 | 0.00 | 0.12 | 0.10 | 47 | 1004.4 |
| 20260503204528 | 51 | 298 | 6.1 | 9.6 | 0.00 | 0.12 | 0.10 | 47 | 1004.4 |
| 20260503203552 | 51 | 292 | 3.5 | 6.1 | 0.00 | 0.12 | 0.10 | 47 | 1004.1 |
| 20260503202518 | 51 | 299 | 5.2 | 8.7 | 0.00 | 0.12 | 0.10 | 47 | 1004.1 |
| 20260503201522 | 51 | 285 | 6.1 | 9.6 | 0.00 | 0.12 | 0.10 | 47 | 1004.6 |
| 20260503200545 | 51 | 294 | 5.2 | 9.6 | 0.00 | 0.12 | 0.10 | 47 | 1004.6 |
| 20260503195549 | 52 | 295 | 3.5 | 8.7 | 0.00 | 0.12 | 0.10 | 47 | 1004.2 |
| 20260503194533 | 51 | 271 | 6.1 | 10.4 | 0.00 | 0.12 | 0.10 | 47 | 1004.0 |
| 20260503193518 | 51 | 284 | 6.1 | 9.6 | 0.00 | 0.12 | 0.10 | 47 | 1004.0 |
| 20260503192522 | 52 | 316 | 7.0 | 11.3 | 0.00 | 0.12 | 0.10 | 47 | 1004.2 |
| 20260503191526 | 53 | 239 | 5.2 | 10.4 | 0.00 | 0.12 | 0.10 | 47 | 1004.6 |
| 20260503190529 | 52 | 279 | 4.3 | 9.6 | 0.00 | 0.12 | 0.10 | 48 | 1004.5 |
| 20260503185515 | 51 | 285 | 6.1 | 7.8 | 0.00 | 0.12 | 0.10 | 48 | 1004.5 |
| 20260503184518 | 52 | 269 | 6.1 | 9.6 | 0.00 | 0.12 | 0.10 | 49 | 1004.4 |
| 20260503183522 | 52 | 315 | 6.1 | 9.6 | 0.00 | 0.12 | 0.10 | 49 | 1004.7 |
| 20260503182526 | 52 | 274 | 6.1 | 8.7 | 0.00 | 0.12 | 0.10 | 49 | 1004.8 |
| 20260503181609 | 53 | 295 | 6.1 | 10.4 | 0.00 | 0.12 | 0.10 | 49 | 1005.1 |
| 20260503180515 | 52 | 319 | 4.3 | 8.7 | 0.00 | 0.12 | 0.10 | 50 | 1005.2 |
| 20260503175519 | 52 | 289 | 7.0 | 10.4 | 0.10 | 0.12 | 0.10 | 51 | 1004.6 |
| 20260503174522 | 52 | 298 | 6.1 | 9.6 | 0.10 | 0.12 | 0.10 | 51 | 1004.7 |
| 20260503173606 | 51 | 285 | 5.2 | 8.7 | 0.10 | 0.12 | 0.10 | 52 | 1005.0 |
| 20260503172544 | 51 | 260 | 7.8 | 13.9 | 0.10 | 0.12 | 0.10 | 52 | 1005.1 |
| 20260503171515 | 51 | 259 | 7.0 | 11.3 | 0.10 | 0.12 | 0.10 | 52 | 1005.0 |
| 20260503170519 | 52 | 254 | 8.7 | 11.3 | 0.10 | 0.12 | 0.10 | 52 | 1004.9 |